[[{"header":{"parameterUnit":"m.s-1","parameterCategory":1,"la1":30.2991,"la2":30.254,"lo1":-89.0895,"lo2":-89.0444,"dy":0.0017,"dx":0.0017,"nx":28,"ny":28,"refTime":"2024-05-20T21:00:00:Z","depth":0,"parameterNumber":2,"parameterNumberName":"U-component_of_WINDS"},"data":[0,0,0,0,0,0,0,0,0,0,0,0,0,0,0,0,0,0,0,0,0,0,0,0,0,0,0,0,0,0,0,0,0,0,0,0,0,0,0,0,0,0,0,0,0,0,0,0,0,0,0,0,0,0,0,0,0,0,-3.0584,-3.0584,0,-3.0578,-3.0578,-3.0578,-3.0519,-3.0518,-3.0516,-3.0515,-3.0509,-3.0511,-3.0512,0,0,0,0,0,0,0,0,0,0,0,0,0,-3.0544,-3.0545,-3.0584,-3.0584,-3.0584,-3.0578,-3.0578,-3.0578,-3.0519,-3.0518,-3.0516,-3.0514,-3.0509,-3.051,-3.0512,0,0,0,0,0,0,0,0,0,0,0,0,0,-3.0552,-3.0546,-3.0584,-3.0554,-3.0551,-3.0578,-3.0578,-3.0578,-3.052,-3.0518,-3.0515,-3.0513,-3.0508,-3.051,-3.0512,-3.0568,0,0,-3.0518,-3.0519,0,0,0,0,0,0,0,0,-3.0552,-3.0554,-3.0558,-3.0556,-3.0553,-3.0547,-3.0562,-3.0575,-3.052,-3.0532,-3.0515,-3.0512,-3.0524,-3.0524,-3.0528,-3.0568,-3.0567,-3.0518,-3.0519,-3.052,-3.052,0,0,0,0,0,0,0,-3.0552,-3.0554,-3.0582,-3.0558,-3.0555,-3.0541,-3.0539,-3.0564,-3.054,-3.053,-3.0526,-3.0526,-3.0522,-3.0526,-3.0527,-3.0567,-3.0518,-3.052,-3.0521,-3.0521,-3.0652,-3.0655,0,0,0,0,0,0,-3.0555,-3.0554,-3.0582,-3.0581,-3.0547,-3.0543,-3.0542,-3.0551,-3.054,-3.0536,-3.0528,-3.0524,-3.0524,-3.0525,-3.0527,-3.0591,-3.052,-3.0522,-3.0523,-3.065,-3.0653,-3.0656,0,0,0,0,0,0,-3.0554,-3.0558,-3.0582,-3.0566,-3.0568,-3.0546,-3.0557,-3.0552,-3.0557,-3.0538,-3.0533,-3.0537,-3.0523,-3.0524,-3.0558,-3.059,-3.0522,-3.0524,-3.0647,-3.0651,-3.0654,-3.072,0,0,0,0,0,0,-3.0554,-3.0558,-3.0579,-3.0567,-3.0569,-3.0613,-3.0559,-3.0554,-3.056,-3.0554,-3.0545,-3.0542,-3.0521,-3.0556,-3.056,-3.0591,-3.0526,-3.0644,-3.0649,-3.0653,-3.0715,-3.0725,-3.0734,0,0,0,0,0,-3.0552,-3.0598,-3.058,-3.0584,-3.0595,-3.0615,-3.0616,-3.0591,-3.0563,-3.0583,-3.0572,-3.0542,-3.0586,-3.056,-3.0564,-3.0596,-3.0642,-3.0648,-3.0653,-3.071,-3.0723,-3.0734,0,0,0,0,0,0,-3.0614,-3.0596,-3.0576,-3.0619,-3.0619,-3.0605,-3.063,-3.0606,-3.0614,-3.0608,-3.0577,-3.0575,-3.0614,-3.0609,-3.0579,-3.065,-3.0609,-3.0616,-3.0651,-3.0663,-3.0673,-3.0673,-3.0527,0,0,0,0,0,-3.0632,-3.065,-3.0634,-3.0673,-3.0674,-3.0653,-3.066,-3.0641,-3.064,-3.064,-3.063,-3.063,-3.0644,-3.0654,-3.0665,-3.0714,-3.0711,-3.0739,-3.0749,-3.0757,-3.0762,-3.0788,-3.0799,-3.0673,-3.0673,-3.0673,0,0,-3.0671,-3.0663,-3.0676,-3.0685,-3.0683,-3.0702,-3.0653,-3.0675,-3.0689,-3.0643,-3.0674,-3.0667,-3.0665,-3.0707,-3.0725,-3.0704,-3.0797,-3.0764,-3.077,-3.0771,-3.0794,-3.0806,-3.0817,-3.0677,-3.0676,-3.0675,0,0,-3.075,-3.0747,-3.0779,-3.0778,-3.0775,-3.076,-3.0769,-3.0758,-3.0752,-3.0783,-3.0749,-3.0765,-3.079,-3.0789,-3.0793,-3.0874,-3.0846,-3.0878,-3.0929,-3.0954,-3.0964,-3.0972,-3.1,-3.1011,-3.0884,-3.0884,-3.0885,0,-3.0798,-3.0825,-3.0799,-3.0823,-3.0828,-3.0788,-3.082,-3.0821,-3.0822,-3.0827,-3.0803,-3.0833,-3.0829,-3.087,-3.089,-3.0894,-3.0902,-3.0878,-3.0964,-3.0973,-3.098,-3.1007,-3.1017,-3.0888,-3.0888,-3.0887,-3.0887,0,-3.0884,-3.0904,-3.093,-3.0933,-3.0941,-3.0969,-3.0947,-3.0959,-3.0939,-3.0928,-3.0959,-3.0953,-3.0963,-3.0972,-3.0953,-3.101,-3.0997,-3.097,-3.0928,-3.0997,-3.1021,-3.1031,-3.0894,-3.0892,-3.0891,-3.089,0,0,-3.1001,-3.0989,-3.0999,-3.0999,-3.0994,-3.1008,-3.1035,-3.1045,-3.1055,-3.1058,-3.1079,-3.1102,-3.1076,-3.108,-3.1061,-3.1083,-3.1147,-3.1053,-3.1053,-3.107,-3.1209,-3.1228,-3.124,-3.113,-3.1132,-3.1133,-3.1208,0,-3.1077,-3.1121,-3.1099,-3.1146,-3.1164,-3.1127,-3.115,-3.1149,-3.1139,-3.1153,-3.1142,-3.1158,-3.1124,-3.1126,-3.1146,-3.1135,-3.1174,-3.1129,-3.1149,-3.115,-3.1149,-3.1253,-3.1274,-3.1345,-3.1218,-3.1219,-3.122,0,-3.1171,-3.1177,-3.1227,-3.1218,-3.1224,-3.1246,-3.1253,-3.1266,-3.1265,-3.1256,-3.1261,-3.1237,-3.1263,-3.1223,-3.1258,-3.1228,-3.1235,-3.1231,-3.1234,-3.1233,-3.1188,-3.1254,-3.1367,-3.1378,-3.1235,-3.1234,-3.1233,0,-3.1249,-3.1271,-3.1303,-3.1305,-3.1296,-3.1312,-3.1309,-3.1305,-3.1312,-3.1319,-3.1323,-3.1333,-3.1338,-3.1346,-3.1325,-3.1298,-3.1363,-3.1321,-3.1356,-3.1357,-3.137,-3.1369,-3.1485,-3.1377,-3.1377,-3.1377,-3.1377,0,-3.1336,-3.1367,-3.1338,-3.1358,-3.1392,-3.1366,-3.1401,-3.1394,-3.1392,-3.1409,-3.1378,-3.1396,-3.1368,-3.1383,-3.1367,-3.1399,-3.1402,-3.1395,-3.139,-3.1397,-3.1398,-3.14,-3.1394,-3.138,-3.1379,-3.1378,-3.1378,0,-3.1429,-3.1411,-3.1444,-3.1432,-3.143,-3.1456,-3.1447,-3.1465,-3.1453,-3.1476,-3.148,-3.1461,-3.1477,-3.1458,-3.1472,-3.1462,-3.1504,-3.1493,-3.1504,-3.15,-3.1536,-3.1533,-3.1656,-3.167,-3.1555,-3.1556,-3.1557,0,-3.1485,-3.1508,-3.1499,-3.1509,-3.1508,-3.1524,-3.1531,-3.1507,-3.1516,-3.1516,-3.1534,-3.1547,-3.1556,-3.1584,-3.1572,-3.1582,-3.157,-3.1613,-3.1571,-3.1578,-3.157,-3.1568,-3.157,-3.1621,-3.1622,-3.1623,-3.1624,0,-3.1585,-3.1575,-3.1586,-3.1595,-3.1605,-3.161,-3.1614,-3.1623,-3.1598,-3.161,-3.1625,-3.1633,-3.1647,-3.1661,-3.1668,-3.1665,-3.1641,-3.1637,-3.1646,-3.1652,-3.1658,-3.1654,-3.1526,-3.1634,-3.1633,-3.1632,-3.1632,-3.1632,-3.166,-3.1679,-3.1676,-3.169,-3.169,-3.1694,-3.171,-3.1701,-3.1713,-3.1723,-3.1708,-3.1728,-3.1726,-3.1734,-3.1734,-3.1749,-3.1731,-3.1743,-3.1746,-3.1749,-3.1754,-3.1657,-3.175,-3.175,-3.175,-3.1749,-3.1749,0,-3.1758,-3.1754,-3.1768,-3.1773,-3.1784,-3.176,-3.1763,-3.1774,-3.1791,-3.1792,-3.1802,-3.182,-3.1833,-3.1822,-3.1833,-3.1847,-3.1836,-3.1851,-3.1849,-3.1849,-3.177,-3.1761,-3.186,-3.186,-3.186,-3.186,-3.186,-3.186,-3.181,-3.1841,-3.1831,-3.1861,-3.1857,-3.1876,-3.1879,-3.1883,-3.1883,-3.1905,-3.1915,-3.1908,-3.1905,-3.1915,-3.1926,-3.1922,-3.1927,-3.1946,-3.1939,-3.1865,-3.1854,-3.1844,-3.1835,-3.1948,-3.1948,-3.2016,-3.2016,-3.2017]},{"header":{"parameterUnit":"m.s-1","parameterCategory":1,"la1":30.2991,"la2":30.254,"lo1":-89.0895,"lo2":-89.0444,"dy":0.0017,"dx":0.0017,"nx":28,"ny":28,"refTime":"2024-05-20T21:00:00:Z","depth":0,"parameterNumber":3,"parameterNumberName":"V-component_of_WINDS"},"data":[0,0,0,0,0,0,0,0,0,0,0,0,0,0,0,0,0,0,0,0,0,0,0,0,0,0,0,0,0,0,0,0,0,0,0,0,0,0,0,0,0,0,0,0,0,0,0,0,0,0,0,0,0,0,0,0,0,0,2.7529,2.7529,0,2.7532,2.7532,2.7532,2.7533,2.7533,2.7533,2.7533,2.7536,2.7536,2.7536,0,0,0,0,0,0,0,0,0,0,0,0,0,2.7521,2.7521,2.7529,2.7529,2.7529,2.7532,2.7532,2.7532,2.7533,2.7533,2.7533,2.7533,2.7536,2.7536,2.7536,0,0,0,0,0,0,0,0,0,0,0,0,0,2.7524,2.7521,2.7529,2.7529,2.7529,2.7532,2.7532,2.7533,2.7533,2.7533,2.7533,2.7533,2.7536,2.7536,2.7536,2.7538,0,0,2.7537,2.7537,0,0,0,0,0,0,0,0,2.7524,2.7525,2.7529,2.7529,2.7529,2.7532,2.7531,2.7534,2.7533,2.7531,2.7533,2.7533,2.7535,2.7535,2.7536,2.7538,2.7539,2.7537,2.7537,2.7537,2.7537,0,0,0,0,0,0,0,2.7524,2.7524,2.753,2.7529,2.7529,2.7529,2.753,2.7532,2.7533,2.7532,2.7532,2.7532,2.7535,2.7535,2.7536,2.7539,2.7537,2.7537,2.7537,2.7537,2.7544,2.7544,0,0,0,0,0,0,2.7524,2.7524,2.753,2.753,2.7527,2.7529,2.753,2.7531,2.7533,2.7533,2.7532,2.7532,2.7535,2.7535,2.7536,2.7539,2.7537,2.7537,2.7537,2.7544,2.7544,2.7544,0,0,0,0,0,0,2.7523,2.7524,2.753,2.7527,2.7528,2.753,2.7531,2.7531,2.7532,2.7534,2.7534,2.7533,2.7535,2.7536,2.7538,2.7539,2.7537,2.7537,2.7544,2.7544,2.7544,2.7545,0,0,0,0,0,0,2.7523,2.7524,2.7525,2.7527,2.7528,2.7532,2.7531,2.7531,2.7533,2.7533,2.7534,2.7535,2.7535,2.7538,2.7538,2.7539,2.7537,2.7544,2.7544,2.7544,2.7545,2.7545,2.7545,0,0,0,0,0,2.7523,2.7525,2.7525,2.7526,2.7529,2.7532,2.7532,2.7533,2.7533,2.7534,2.7535,2.7534,2.7539,2.7538,2.7538,2.754,2.7544,2.7544,2.7544,2.7545,2.7545,2.7545,0,0,0,0,0,0,2.7522,2.7525,2.7525,2.7528,2.753,2.7532,2.7533,2.7533,2.7535,2.7535,2.7536,2.7536,2.7538,2.7539,2.7538,2.7542,2.7541,2.7541,2.7541,2.7542,2.7542,2.7542,2.7537,0,0,0,0,0,2.7523,2.7525,2.7527,2.7529,2.753,2.7531,2.7533,2.7533,2.7535,2.7535,2.7537,2.7538,2.754,2.7541,2.7542,2.7545,2.7545,2.7546,2.7546,2.7546,2.7547,2.7548,2.7549,2.7545,2.7545,2.7545,0,0,2.7523,2.7525,2.7526,2.7529,2.753,2.7532,2.7532,2.7534,2.7535,2.7536,2.7538,2.7539,2.7541,2.7543,2.7544,2.7544,2.7548,2.7547,2.7547,2.7547,2.7548,2.7549,2.7549,2.7545,2.7545,2.7545,0,0,2.7525,2.7526,2.7528,2.753,2.7532,2.7533,2.7534,2.7536,2.7537,2.7539,2.754,2.7541,2.7544,2.7545,2.7546,2.7549,2.7549,2.755,2.7551,2.7552,2.7553,2.7553,2.7554,2.7554,2.755,2.755,2.755,0,2.7525,2.7528,2.7529,2.7531,2.7533,2.7534,2.7536,2.7537,2.754,2.754,2.754,2.7544,2.7545,2.7548,2.7549,2.755,2.755,2.7549,2.7552,2.7553,2.7553,2.7554,2.7554,2.755,2.755,2.755,2.755,0,2.7528,2.753,2.7532,2.7535,2.7536,2.7538,2.754,2.7541,2.7542,2.7543,2.7546,2.7547,2.7549,2.755,2.755,2.7553,2.7553,2.7552,2.7551,2.7553,2.7554,2.7555,2.755,2.755,2.755,2.755,0,0,2.7529,2.7533,2.7533,2.7535,2.7538,2.7539,2.7542,2.7544,2.7545,2.7547,2.7549,2.7552,2.7552,2.7553,2.7553,2.7555,2.7557,2.7554,2.7554,2.7555,2.756,2.756,2.7561,2.7557,2.7557,2.7557,2.756,0,2.7531,2.7535,2.7537,2.754,2.7542,2.7543,2.7545,2.7547,2.7548,2.755,2.7551,2.7553,2.7553,2.7554,2.7555,2.7556,2.7558,2.7556,2.7559,2.7559,2.7558,2.7561,2.7561,2.7564,2.756,2.7561,2.7561,0,2.7534,2.7536,2.754,2.7543,2.7544,2.7546,2.7548,2.755,2.7552,2.7553,2.7555,2.7555,2.7558,2.7557,2.756,2.7559,2.756,2.756,2.7561,2.7561,2.756,2.7561,2.7565,2.7565,2.7561,2.7561,2.7561,0,2.7534,2.7538,2.7541,2.7542,2.7546,2.7547,2.7549,2.7551,2.7552,2.7554,2.7555,2.7558,2.7559,2.7561,2.7562,2.7561,2.7565,2.7564,2.7566,2.7565,2.7566,2.7566,2.757,2.7567,2.7567,2.7567,2.7567,0,2.7536,2.7538,2.7541,2.7543,2.7546,2.7548,2.755,2.7552,2.7554,2.7556,2.7557,2.7558,2.756,2.7562,2.7563,2.7565,2.7566,2.7567,2.7567,2.7566,2.7566,2.7567,2.7567,2.7567,2.7567,2.7567,2.7567,0,2.7537,2.7539,2.7542,2.7546,2.7546,2.7548,2.7551,2.7553,2.7554,2.7557,2.7557,2.756,2.7562,2.7563,2.7566,2.7567,2.757,2.757,2.7569,2.7569,2.7571,2.757,2.7575,2.7575,2.7572,2.7572,2.7572,0,2.7538,2.754,2.7543,2.7545,2.7547,2.7549,2.7551,2.7553,2.7555,2.7558,2.7559,2.7561,2.7564,2.7567,2.7569,2.7571,2.7572,2.7573,2.7572,2.7572,2.7572,2.7571,2.7572,2.7573,2.7573,2.7573,2.7573,0,2.754,2.7541,2.7543,2.7546,2.7549,2.7551,2.7553,2.7555,2.7557,2.7559,2.7562,2.7563,2.7567,2.7569,2.7572,2.7573,2.7573,2.7573,2.7574,2.7574,2.7573,2.7573,2.757,2.7573,2.7573,2.7573,2.7573,2.7573,2.7541,2.7542,2.7546,2.7548,2.7551,2.7553,2.7555,2.7557,2.7559,2.7562,2.7563,2.7566,2.7569,2.7572,2.7574,2.7576,2.7575,2.7576,2.7576,2.7576,2.7576,2.7573,2.7576,2.7576,2.7576,2.7576,2.7576,0,2.7542,2.7545,2.7547,2.7551,2.7553,2.7554,2.7557,2.7559,2.7561,2.7564,2.7566,2.7569,2.7572,2.7574,2.7577,2.7578,2.7578,2.7579,2.7578,2.7579,2.7576,2.7576,2.7578,2.7578,2.7578,2.7578,2.7578,2.7578,2.7544,2.7547,2.7549,2.7553,2.7555,2.7558,2.756,2.7562,2.7564,2.7568,2.757,2.7571,2.7574,2.7577,2.7579,2.758,2.758,2.7581,2.7581,2.7579,2.7579,2.7579,2.7578,2.7581,2.7581,2.7583,2.7583,2.7583]}]]